This is the latest recevied weather packets stored in our database for station/object JR5YHL-13. If no packets are shown the sender has not sent any weather packets the latest 10 day(s).
| Time | Temp. | Humidity | Pressure | Rain* | Wind** | Luminosity | Snow |
|---|---|---|---|---|---|---|---|
| 1777642476 | 12.78° C | 90% | 1008.1 hPa | 0 mm | - | - | - |
| 1777641878 | 12.78° C | 88% | 1007.8 hPa | 0 mm | - | - | - |
| 1777641281 | 13.33° C | 85% | 1007.9 hPa | 0 mm | - | - | - |
| 1777640683 | 13.33° C | 84% | 1007.6 hPa | 0 mm | - | - | - |
| 1777640085 | 13.89° C | 84% | 1007.6 hPa | 0 mm | - | - | - |
| 1777639488 | 13.89° C | 83% | 1007.2 hPa | 0 mm | - | - | - |
| 1777638890 | 13.89° C | 80% | 1006.9 hPa | 0 mm | - | - | - |
| 1777638292 | 14.44° C | 76% | 1006.8 hPa | 0 mm | - | - | - |
| 1777637695 | 14.44° C | 74% | 1006.9 hPa | 0 mm | - | - | - |
| 1777637097 | 15° C | 72% | 1006.8 hPa | 0 mm | - | - | - |
| 1777636499 | 15° C | 72% | 1006.8 hPa | 0 mm | - | - | - |
| 1777635902 | 15° C | 69% | 1006.6 hPa | 0 mm | - | - | - |
| 1777635304 | 15° C | 69% | 1006.3 hPa | 0 mm | - | - | - |
| 1777634707 | 15° C | 67% | 1006.3 hPa | 0 mm | - | - | - |
| 1777634109 | 15.56° C | 66% | 1006.1 hPa | 0 mm | - | - | - |
| 1777633511 | 15.56° C | 63% | 1005.8 hPa | 0 mm | - | - | - |
| 1777632914 | 15.56° C | 63% | 1005.6 hPa | 0 mm | - | - | - |
| 1777632316 | 15.56° C | 61% | 1005.4 hPa | 0 mm | - | - | - |
| 1777631718 | 16.11° C | 57% | 1005.3 hPa | 0 mm | - | - | - |
| 1777631121 | 16.11° C | 56% | 1005.3 hPa | 0 mm | - | - | - |
| 1777630523 | 16.67° C | 50% | 1005.3 hPa | 0 mm | - | - | - |
| 1777629926 | 16.67° C | 46% | 1005.3 hPa | 0 mm | - | - | - |
| 1777629328 | 16.67° C | 48% | 1005.3 hPa | 0 mm | - | - | - |
| 1777628731 | 16.67° C | 46% | 1005.2 hPa | 0 mm | - | - | - |
| 1777628133 | 16.67° C | 46% | 1005.1 hPa | 0 mm | - | - | - |
* Rain latest hour (hover to see other rain measurements)
** Current wind speed in m/s (hover to see current wind gust speed)